Regional Weather Roundup
Issued by NWS

Home | Current Version | Previous Version | Graphics & Text | Print | Product List | Glossary On
Versions: 1 2 3 4 5 6 7 8 9 10 11 12 13 14 15 16 17 18 19 20 21 22 23 24 25 26 27
000
ASUS45 KBOU 241507
RWRCO

WEATHER ROUNDUP FOR COLORADO
NATIONAL WEATHER SERVICE DENVER/BOULDER CO
900 AM MDT FRI OCT 24 2014

NOTE: "FAIR" INDICATES FEW OR NO CLOUDS BELOW 12000 FEET WITH NO
SIGNIFICANT WEATHER AND/OR OBSTRUCTIONS TO VISIBILITY.

COZ001>005-013-030-031-241600-
...NORTHWEST COLORADO...

CITY           SKY/WX    TMP DP  RH WIND       PRES   REMARKS
CRAIG          MOSUNNY   39  32  76 CALM      30.33R
HAYDEN         MOSUNNY   43  30  61 SE10      30.34R
MEEKER         SUNNY     44  33  65 CALM      30.34R
MOUNT WERNER   NOT AVBL
STEAMBOAT SPGS MOSUNNY   35  30  82 NW3       30.36R
WALDEN         PTSUNNY   43  25  49 S9        30.37R
$$

COZ006>008-011-241600-
...WEST CENTRAL VALLEYS...

CITY           SKY/WX    TMP DP  RH WIND       PRES   REMARKS
GRAND JUNCTION SUNNY     48  38  68 SE8       30.30R
MONTROSE       SUNNY     47  28  47 S7        30.38R
EAGLE          MOSUNNY   37  34  87 CALM      30.44R
RIFLE          SUNNY     41  35  79 CALM      30.36R
DELTA          SUNNY     47  35  62 CALM      30.36R
NUCLA          SUNNY     46  28  49 E6        30.41R
$$

COZ017>023-064>068-241600-
...SOUTHWEST COLORADO...

CITY           SKY/WX    TMP DP  RH WIND       PRES   REMARKS
DURANGO        SUNNY     41  36  82 NE5       30.41R
CORTEZ         SUNNY     45  32  60 E5        30.38R
PAGOSA SPRINGS SUNNY     45  37  72 CALM      30.46R
TELLURIDE      SUNNY     45  21  39 CALM      30.53R
WOLF CREEK PAS SUNNY     41  10  28 S10         N/A
$$

COZ009-010-012-014-032>034-037-058>063-241600-
...CENTRAL COLORADO...

CITY           SKY/WX    TMP DP  RH WIND       PRES   REMARKS
ASPEN          SUNNY     41  25  53 CALM      30.43R
BUENA VISTA    MOSUNNY   40  27  59 CALM      30.43R
COPPER MTN     MOSUNNY   43   9  24 S17       30.64R
BERTHOUD PASS  FAIR      34  32  93 W23G30    30.62R WCI  22
COTTONWOOD PAS MOSUNNY   52   7  16 N6        30.50R
GUNNISON       MOSUNNY   30  25  80 CALM      30.54R
KREMMLING      SUNNY     32  28  86 CALM        N/A
LEADVILLE      MOSUNNY   30  17  58 N6        30.52R WCI  24
MONARCH PASS   MOSUNNY   36  19  51 W32       30.71R
SALIDA         MOSUNNY   46  25  42 NW13      30.47S
SUNLIGHT       SUNNY     41  27  56 SW3       30.58R
WILKERSON PASS NOT AVBL
$$

COZ069>075-241600-
...SAN LUIS VALLEY/SANGRE DE CRISTO MOUNTAINS...

CITY           SKY/WX    TMP DP  RH WIND       PRES   REMARKS
ALAMOSA        MOSUNNY   41  29  62 CALM      30.44R
LA VETA PASS   SUNNY     43  28  56 S8G16     30.52R
SAGUACHE       MOSUNNY   45  27  49 NW16      30.45R
$$

COZ035-036-038>040-241600-
...NORTHERN COLORADO FRONT RANGE...

CITY           SKY/WX    TMP DP  RH WIND       PRES   REMARKS
DENVER INTL AP CLOUDY    60  26  27 SW9       30.19R
DMNS CITY PARK   N/A     55  34  45 E2        30.20R
AURORA         PTSUNNY   56  28  34 S8        30.22R
FRONT RANGE AP NOT AVBL
ERIE MUNI ARPT CLOUDY    60  29  31 CALM      30.18R
BOULDER MUN AP CLOUDY    64  27  24 W6        30.19R
CENTENNIAL     CLOUDY    61  24  24 W12       30.22R
BROOMFIELD     PTSUNNY   68  21  17 W15       30.21R
FORT COLLINS   CLOUDY    52  34  50 NE7       30.19R
LONGMONT       CLOUDY    53  39  59 CALM      30.19R
$$

COZ041-046-047-076>085-087-088-241600-
...PIKES PEAK/PALMER DIVIDE AND SOUTHERN FOOTHILLS...

CITY           SKY/WX    TMP DP  RH WIND       PRES   REMARKS
COLO. SPRINGS  CLOUDY    65  28  24 W3        30.26R
A. F. ACADEMY  CLOUDY    64  23  20 NE7       30.27R
ELLICOTT       NOT AVBL
FALCON         CLOUDY    66  20  17 W8        30.30R
FORT CARSON    CLOUDY    61  28  28 W5        30.23R
LIMON          PTSUNNY   63  31  30 NW8       30.20R
MONUMENT HILL  CLOUDY    57  25  28 SW6       30.29R
TRINIDAD       SUNNY     58  33  39 W9        30.25R
$$

COZ042>045-048>051-090-091-241600-
...NORTHEAST COLORADO...

CITY           SKY/WX    TMP DP  RH WIND       PRES   REMARKS
GREELEY ARPT   CLOUDY    46  36  66 W3        30.17R
AKRON          CLOUDY    58  33  39 W14       30.13R
BURLINGTON     MOSUNNY   63  39  41 W7        30.12R
WRAY           PTSUNNY   60  37  42 W10       30.09R
STERLING       CLOUDY    52  43  71 S7        30.11R
HOLYOKE        PTSUNNY   63  37  39 W9        30.07
FORT MORGAN    CLOUDY    51  38  60 W7        30.15R
$$

COZ086-089-092>099-241600-
...SOUTHEAST COLORADO...

CITY           SKY/WX    TMP DP  RH WIND       PRES   REMARKS
PUEBLO         PTSUNNY   60  32  34 W8        30.19R
LA JUNTA       SUNNY     60  34  37 W10       30.17R
LAMAR          SUNNY     55  40  56 W7        30.13R
SPRINGFIELD      N/A     70  41  34 W8        30.16R
$$



USA.gov is the U.S. government's official web portal to all federal, state and local government web resources and services.